Date,Time,Wetness (Wet Dry or Ice),Wind Speed (m/s),Temperature (C),Humidity (%),Pressure (mb),Radiation (W/m^2)
2018-07-05,00:10:00,DRY,1.90,19.07,4.0,781.00,1.8
2018-07-05,00:15:00,DRY,1.60,19.00,4.0,781.00,0.8
2018-07-05,00:20:00,DRY,2.87,19.10,4.0,781.00,0.5
2018-07-05,00:25:00,DRY,1.30,19.05,4.0,781.00,1.1
2018-07-05,00:30:00,DRY,2.77,19.00,4.0,781.00,1.1
2018-07-05,00:35:00,DRY,3.95,19.20,4.0,781.00,1.1
2018-07-05,00:40:00,DRY,3.63,19.20,4.0,781.00,1.1
2018-07-05,00:45:00,DRY,3.20,19.40,4.0,781.00,0.8
2018-07-05,00:50:00,DRY,2.57,19.10,4.0,781.00,1.1
2018-07-05,00:55:00,DRY,2.85,18.95,4.0,781.00,0.6
2018-07-05,01:00:00,DRY,2.97,19.10,4.0,781.00,1.1
2018-07-05,01:05:00,DRY,3.25,19.20,4.0,781.00,1.4
2018-07-05,01:10:00,DRY,2.47,19.37,4.0,781.00,1.5
2018-07-05,01:15:00,DRY,2.60,19.30,4.0,781.00,1.6
2018-07-05,01:20:00,DRY,3.53,19.23,4.0,780.67,1.0
2018-07-05,01:25:00,DRY,4.45,19.35,4.0,780.00,0.7
2018-07-05,01:30:00,DRY,3.53,19.33,4.0,780.00,1.0
2018-07-05,01:35:00,DRY,3.05,19.35,4.0,780.00,1.6
2018-07-05,01:40:00,DRY,4.17,19.37,4.0,780.00,1.3
2018-07-05,01:45:00,DRY,3.40,19.35,4.0,780.00,1.1
2018-07-05,01:50:00,DRY,3.40,19.23,4.0,780.00,1.1
2018-07-05,01:55:00,DRY,3.70,19.25,4.0,780.00,0.9
2018-07-05,02:00:00,DRY,3.87,19.13,4.0,780.00,1.1
2018-07-05,02:05:00,DRY,3.60,19.20,4.0,780.00,1.9
2018-07-05,02:10:00,DRY,3.43,19.23,4.0,780.00,1.1
2018-07-05,02:15:00,DRY,3.40,19.20,4.0,780.00,1.4
2018-07-05,02:20:00,DRY,3.90,19.23,4.0,780.00,1.1
2018-07-05,02:25:00,DRY,4.70,19.10,4.0,780.00,1.6
2018-07-05,02:30:00,DRY,3.87,19.10,4.0,780.00,1.0
2018-07-05,02:35:00,DRY,2.45,19.10,4.0,780.00,1.0
2018-07-05,02:40:00,DRY,3.63,19.17,4.0,780.00,1.1
2018-07-05,02:45:00,DRY,3.45,19.15,4.0,780.00,1.0
2018-07-05,02:50:00,DRY,3.27,19.13,4.0,780.00,0.9
2018-07-05,02:55:00,DRY,3.60,19.15,4.0,780.00,1.4
2018-07-05,03:00:00,DRY,3.27,19.07,4.0,780.00,0.6
2018-07-05,03:05:00,DRY,3.55,19.10,4.0,780.00,1.1
2018-07-05,03:10:00,DRY,5.03,19.27,4.0,780.00,1.8
2018-07-05,03:15:00,DRY,3.05,19.60,4.0,780.00,0.8
2018-07-05,03:20:00,DRY,4.70,19.40,4.0,780.00,0.7
2018-07-05,03:25:00,DRY,3.80,19.30,4.0,780.00,1.9
2018-07-05,03:30:00,DRY,3.77,19.47,4.0,780.00,0.6
2018-07-05,03:35:00,DRY,3.40,19.50,4.0,780.00,0.7
2018-07-05,03:40:00,DRY,3.60,19.40,4.0,780.00,0.6
2018-07-05,03:45:00,DRY,3.35,19.25,4.0,780.00,1.0
2018-07-05,03:50:00,DRY,3.53,19.20,4.0,780.00,0.7
2018-07-05,03:55:00,DRY,3.95,19.10,4.0,780.00,1.0
2018-07-05,04:00:00,DRY,3.53,18.87,4.0,780.00,1.1
2018-07-05,04:05:00,DRY,4.70,18.85,4.0,780.00,0.9
2018-07-05,04:10:00,DRY,3.90,19.00,3.7,780.00,0.9
2018-07-05,04:15:00,DRY,3.75,19.00,4.0,780.00,1.5
2018-07-05,04:20:00,DRY,3.10,19.13,3.3,780.00,0.6
2018-07-05,04:25:00,DRY,3.50,19.00,4.0,780.00,1.1
2018-07-05,04:30:00,DRY,2.10,19.00,3.7,780.00,1.6
2018-07-05,04:35:00,DRY,3.70,19.00,3.5,780.00,1.6
2018-07-05,04:40:00,DRY,3.20,19.07,3.0,780.00,1.0
2018-07-05,04:45:00,DRY,2.55,18.90,3.5,780.00,1.0
2018-07-05,04:50:00,DRY,3.03,18.90,3.7,780.00,1.1
2018-07-05,04:55:00,DRY,2.75,18.95,3.5,780.00,0.7
2018-07-05,05:00:00,DRY,3.10,18.90,3.7,780.00,1.1
2018-07-05,05:05:00,DRY,3.10,19.00,3.5,780.00,1.8
2018-07-05,05:10:00,DRY,2.03,18.87,3.7,780.00,1.4
2018-07-05,05:15:00,DRY,3.05,18.80,3.5,780.00,0.8
2018-07-05,05:20:00,DRY,2.57,18.73,3.7,780.00,0.8
2018-07-05,05:25:00,DRY,2.30,18.70,3.0,780.00,0.9
2018-07-05,05:30:00,DRY,2.70,18.80,3.0,780.00,0.5
2018-07-05,05:35:00,DRY,2.65,18.75,3.0,780.00,1.0
2018-07-05,05:40:00,DRY,3.70,18.83,3.3,780.00,1.3
2018-07-05,05:45:00,DRY,3.85,18.95,3.0,780.00,1.2
2018-07-05,05:50:00,DRY,3.87,19.37,3.0,780.00,1.0
2018-07-05,05:55:00,DRY,3.05,19.35,3.0,780.00,0.8
2018-07-05,06:00:00,DRY,3.87,19.73,3.0,780.00,1.4
2018-07-05,06:05:00,DRY,5.00,19.85,3.0,780.00,1.6
2018-07-05,06:10:00,DRY,4.53,19.87,3.0,780.00,3.3
2018-07-05,06:15:00,DRY,2.80,19.80,3.0,780.00,3.5
2018-07-05,06:20:00,DRY,4.70,19.67,3.0,780.00,5.6
2018-07-05,06:25:00,DRY,4.90,19.90,3.0,780.00,9.2
2018-07-05,06:30:00,DRY,4.57,19.70,3.0,780.00,14.7
2018-07-05,06:35:00,DRY,3.60,19.70,3.0,780.00,21.3
2018-07-05,06:40:00,DRY,4.23,19.80,3.0,780.00,28.9
2018-07-05,06:45:00,DRY,3.10,19.50,3.0,780.50,38.4
2018-07-05,06:50:00,DRY,4.27,19.53,3.0,780.33,50.2
2018-07-05,06:55:00,DRY,4.60,19.90,3.0,780.50,62.0
2018-07-05,07:00:00,DRY,3.73,20.33,3.3,780.67,75.7
2018-07-05,07:05:00,DRY,3.55,20.35,3.0,781.00,90.0
2018-07-05,07:10:00,DRY,3.53,20.07,3.0,781.00,107.0
2018-07-05,07:15:00,DRY,3.50,19.85,3.0,781.00,124.5
2018-07-05,07:20:00,DRY,4.20,20.00,3.3,781.00,142.2
2018-07-05,07:25:00,DRY,3.80,20.40,4.0,780.50,162.5
2018-07-05,07:30:00,DRY,3.80,20.33,4.3,780.67,184.3
2018-07-05,07:35:00,DRY,3.55,20.30,4.0,781.00,205.2
2018-07-05,07:40:00,DRY,2.67,20.40,4.0,780.67,226.1
2018-07-05,07:45:00,DRY,2.50,20.15,3.5,781.00,247.1
2018-07-05,07:50:00,DRY,2.50,20.17,4.7,780.67,264.2
2018-07-05,07:55:00,DRY,2.30,20.55,6.0,780.50,286.6
2018-07-05,08:00:00,DRY,2.03,20.70,5.7,781.00,311.9
2018-07-05,08:05:00,DRY,2.40,20.80,6.0,780.50,323.9
2018-07-05,08:10:00,DRY,2.63,20.80,6.0,780.67,339.2
2018-07-05,08:15:00,DRY,2.30,20.75,6.0,781.00,362.1
2018-07-05,08:20:00,DRY,3.60,20.87,6.3,780.33,383.8
2018-07-05,08:25:00,DRY,3.40,20.90,6.5,780.50,405.1
2018-07-05,08:30:00,DRY,3.97,21.00,6.7,780.33,425.4
2018-07-05,08:35:00,DRY,4.20,21.10,6.0,780.50,445.6
2018-07-05,08:40:00,DRY,4.03,21.07,6.0,780.00,460.5
2018-07-05,08:45:00,DRY,3.35,21.10,6.0,781.00,477.4
2018-07-05,08:50:00,DRY,2.63,21.17,6.0,780.67,495.3
2018-07-05,08:55:00,DRY,2.60,21.30,6.0,780.00,518.2
2018-07-05,09:00:00,DRY,2.60,21.43,6.0,780.67,529.0
2018-07-05,09:05:00,DRY,3.60,21.45,6.0,781.00,547.2
2018-07-05,09:10:00,DRY,1.87,21.70,6.3,781.00,564.1
2018-07-05,09:15:00,DRY,2.90,21.85,6.0,781.00,585.6
2018-07-05,09:20:00,DRY,2.03,21.90,6.3,781.00,601.0
2018-07-05,09:25:00,DRY,1.45,21.95,5.5,781.00,621.3
2018-07-05,09:30:00,DRY,2.67,21.97,6.3,781.00,636.2
2018-07-05,09:35:00,DRY,1.40,22.00,6.0,780.50,653.9
2018-07-05,09:40:00,DRY,1.30,22.07,6.3,781.00,670.9
2018-07-05,09:45:00,DRY,2.50,22.10,6.5,781.00,688.5
2018-07-05,09:50:00,DRY,2.87,22.33,6.7,781.00,706.4
2018-07-05,09:55:00,DRY,2.75,22.40,7.0,781.00,721.2
2018-07-05,10:00:00,DRY,2.53,22.63,6.3,781.00,738.0
2018-07-05,10:05:00,DRY,4.15,22.65,7.0,781.00,753.6
2018-07-05,10:10:00,DRY,3.30,22.37,7.3,781.00,766.7
2018-07-05,10:15:00,DRY,2.80,22.95,8.0,781.00,782.4
2018-07-05,10:20:00,DRY,2.60,22.90,7.7,781.00,795.3
2018-07-05,10:25:00,DRY,2.05,23.15,7.5,781.00,814.6
2018-07-05,10:30:00,DRY,2.80,23.20,8.0,781.00,820.8
2018-07-05,10:35:00,DRY,2.05,23.30,8.0,781.00,836.1
2018-07-05,10:40:00,DRY,3.50,23.30,8.0,781.00,843.1
2018-07-05,10:45:00,DRY,1.75,23.30,7.5,781.00,858.3
2018-07-05,10:50:00,DRY,1.57,23.27,8.0,781.00,873.6
2018-07-05,10:55:00,DRY,4.40,23.25,7.0,781.00,884.1
2018-07-05,11:00:00,DRY,2.37,23.33,7.3,781.00,899.7
2018-07-05,11:05:00,DRY,3.10,23.55,7.5,781.00,911.9
2018-07-05,11:10:00,DRY,1.90,23.37,7.7,781.00,915.2
2018-07-05,11:15:00,DRY,1.85,23.60,8.5,781.00,924.8
2018-07-05,11:20:00,DRY,1.50,23.73,8.7,781.00,938.7
2018-07-05,11:25:00,DRY,2.20,23.70,8.5,781.00,946.6
2018-07-05,11:30:00,DRY,3.27,23.40,8.7,781.00,953.3
2018-07-05,11:35:00,DRY,3.40,23.45,8.5,781.00,956.8
2018-07-05,11:40:00,DRY,3.17,23.07,7.7,781.00,971.1
2018-07-05,11:45:00,DRY,2.45,23.70,9.5,781.00,979.5
2018-07-05,11:50:00,DRY,3.10,23.67,8.3,781.00,978.9
2018-07-05,11:55:00,DRY,4.30,23.45,8.5,781.00,986.1
2018-07-05,12:00:00,DRY,2.23,23.33,8.7,781.00,993.2
2018-07-05,12:05:00,DRY,1.60,23.45,9.0,781.00,1008.0
2018-07-05,12:10:00,DRY,3.67,23.77,10.3,781.00,1007.2
2018-07-05,12:15:00,DRY,3.35,24.10,10.0,781.00,1014.4
2018-07-05,12:20:00,DRY,2.50,23.70,9.0,781.00,1017.8
2018-07-05,12:25:00,DRY,2.30,23.70,10.0,781.00,1021.5
2018-07-05,12:30:00,DRY,3.45,23.80,7.0,781.00,1026.1
2018-07-05,12:35:00,DRY,3.45,23.55,10.5,781.00,1032.1
2018-07-05,12:40:00,DRY,3.43,23.87,9.0,781.00,1030.4
2018-07-05,12:45:00,DRY,1.25,23.35,8.5,781.00,1027.5
2018-07-05,12:50:00,DRY,3.30,24.27,9.3,781.00,1030.2
2018-07-05,12:55:00,DRY,2.90,23.95,8.5,781.00,1032.5
2018-07-05,13:00:00,DRY,3.23,24.00,10.3,781.00,1038.4
2018-07-05,13:05:00,DRY,3.15,23.65,7.5,781.00,1042.0
2018-07-05,13:10:00,DRY,2.93,23.53,8.7,781.00,1037.2
2018-07-05,13:15:00,DRY,1.70,24.10,9.0,781.00,1032.9
2018-07-05,13:20:00,DRY,3.93,24.20,10.0,781.00,1036.2
2018-07-05,13:25:00,DRY,4.05,24.35,8.5,781.00,1041.2
2018-07-05,13:30:00,DRY,3.55,24.10,8.0,781.00,1040.3
2018-07-05,13:35:00,DRY,3.50,24.30,7.0,781.00,1030.4
2018-07-05,13:40:00,DRY,3.70,23.97,10.0,781.00,1012.1
2018-07-05,13:45:00,DRY,2.10,24.10,9.0,781.00,1035.2
2018-07-05,13:50:00,DRY,4.13,23.83,10.3,781.00,1033.0
2018-07-05,13:55:00,DRY,2.20,23.70,8.5,781.00,1029.3
2018-07-05,14:00:00,DRY,3.27,24.13,9.7,781.00,1028.2
2018-07-05,14:05:00,DRY,2.15,23.90,8.0,781.00,1034.2
2018-07-05,14:10:00,DRY,6.63,24.00,9.3,781.00,1020.3
2018-07-05,14:15:00,DRY,5.75,23.95,12.5,781.00,1019.1
2018-07-05,14:20:00,DRY,4.33,24.30,11.7,780.33,1009.8
2018-07-05,14:25:00,DRY,3.85,24.50,9.0,781.00,1006.6
2018-07-05,14:30:00,DRY,3.33,23.90,9.7,780.67,1003.0
2018-07-05,14:35:00,DRY,4.15,24.05,8.5,781.00,994.0
2018-07-05,14:40:00,DRY,2.37,24.13,9.7,781.00,986.3
2018-07-05,14:45:00,DRY,3.65,23.90,9.5,780.50,980.9
2018-07-05,14:50:00,DRY,3.30,24.33,12.0,781.00,969.2
2018-07-05,14:55:00,DRY,3.90,24.40,12.0,780.00,967.9
2018-07-05,15:00:00,DRY,3.63,24.70,11.0,780.67,956.4
2018-07-05,15:05:00,DRY,2.85,23.90,10.0,780.00,955.8
2018-07-05,15:10:00,DRY,3.17,24.67,11.0,780.00,937.6
2018-07-05,15:15:00,DRY,3.05,24.60,11.0,780.00,929.2
2018-07-05,15:20:00,DRY,3.77,24.00,11.3,780.00,920.8
2018-07-05,15:25:00,DRY,1.95,24.00,10.5,780.00,907.5
2018-07-05,15:30:00,DRY,2.53,23.90,9.3,780.00,899.8
2018-07-05,15:35:00,DRY,3.95,23.80,10.0,780.00,891.8
2018-07-05,15:40:00,DRY,5.07,24.17,9.7,780.00,875.7
2018-07-05,15:45:00,DRY,2.25,23.85,7.0,780.00,868.0
2018-07-05,15:50:00,DRY,3.37,23.47,9.3,780.00,855.0
2018-07-05,15:55:00,DRY,2.45,24.05,10.0,780.00,840.8
2018-07-05,16:00:00,DRY,3.80,23.90,10.3,780.00,823.5
2018-07-05,16:05:00,DRY,4.50,23.90,8.5,780.00,816.2
2018-07-05,16:10:00,DRY,3.67,23.67,10.0,780.00,798.2
2018-07-05,16:15:00,DRY,5.50,23.10,9.0,780.00,784.0
2018-07-05,16:20:00,DRY,2.67,23.83,10.0,780.00,769.3
2018-07-05,16:25:00,DRY,3.75,24.05,8.5,780.00,756.5
2018-07-05,16:30:00,DRY,4.23,23.63,9.7,780.00,737.8
2018-07-05,16:35:00,DRY,4.15,23.55,9.0,780.00,723.0
2018-07-05,16:40:00,DRY,4.20,23.50,8.3,780.00,707.4
2018-07-05,16:45:00,DRY,3.65,23.65,8.0,780.00,692.6
2018-07-05,16:50:00,DRY,3.53,23.33,7.3,780.00,676.2
2018-07-05,16:55:00,DRY,4.40,22.90,8.0,780.00,660.3
2018-07-05,17:00:00,DRY,5.80,23.03,7.0,780.00,643.3
2018-07-05,17:05:00,DRY,4.85,23.20,8.5,780.00,626.8
2018-07-05,17:10:00,DRY,5.50,23.05,8.5,780.00,603.0
2018-07-05,17:15:00,DRY,2.70,22.80,8.0,780.00,593.4
2018-07-05,17:20:00,DRY,2.87,23.10,8.3,780.00,570.7
2018-07-05,17:25:00,DRY,6.00,22.85,8.5,780.00,553.9
2018-07-05,17:30:00,DRY,4.80,22.87,7.7,780.00,538.4
2018-07-05,17:35:00,DRY,3.25,22.80,7.0,780.00,518.6
2018-07-05,17:40:00,DRY,5.00,22.93,8.0,780.00,500.0
2018-07-05,17:45:00,DRY,4.35,22.45,9.0,780.00,482.4
2018-07-05,17:50:00,DRY,4.47,22.63,8.7,780.00,461.4
2018-07-05,17:55:00,DRY,4.05,22.25,8.0,780.00,442.8
2018-07-05,18:00:00,DRY,3.47,22.27,7.7,780.00,423.8
2018-07-05,18:05:00,DRY,4.00,22.60,8.0,780.00,404.1
2018-07-05,18:10:00,DRY,3.93,22.40,7.7,780.00,384.7
2018-07-05,18:15:00,DRY,6.45,22.35,7.5,780.00,365.6
2018-07-05,18:20:00,DRY,4.33,22.20,8.0,780.00,345.0
2018-07-05,18:25:00,DRY,3.80,22.10,7.5,780.00,326.4
2018-07-05,18:30:00,DRY,4.50,21.93,6.7,780.00,305.7
2018-07-05,18:35:00,DRY,3.95,21.95,7.0,780.00,286.7
2018-07-05,18:40:00,DRY,4.77,21.70,6.7,780.00,267.6
2018-07-05,18:45:00,DRY,4.70,21.50,6.5,780.00,247.2
2018-07-05,18:50:00,DRY,4.10,21.57,6.0,780.00,228.9
2018-07-05,18:55:00,DRY,6.55,21.45,6.5,780.00,208.9
2018-07-05,19:00:00,DRY,4.23,21.23,6.7,780.00,189.4
2018-07-05,19:05:00,DRY,4.75,21.40,6.5,780.00,170.9
2018-07-05,19:10:00,DRY,4.23,21.23,7.0,780.00,152.7
2018-07-05,19:15:00,DRY,5.60,21.10,7.0,780.00,134.8
2018-07-05,19:20:00,DRY,5.00,21.07,6.7,780.00,117.8
2018-07-05,19:25:00,DRY,5.65,20.95,7.0,780.00,102.5
2018-07-05,19:30:00,DRY,5.23,20.87,7.0,780.00,87.9
2018-07-05,19:35:00,DRY,5.75,20.65,7.0,780.00,74.0
2018-07-05,19:40:00,DRY,5.37,20.57,7.0,780.00,59.4
2018-07-05,19:45:00,DRY,3.35,20.40,7.0,780.00,48.1
2018-07-05,19:50:00,DRY,4.97,20.40,7.0,780.00,36.4
2018-07-05,19:55:00,DRY,5.10,20.35,7.0,780.00,27.4
2018-07-05,20:00:00,DRY,4.50,20.17,7.0,780.00,19.9
2018-07-05,20:05:00,DRY,4.80,20.10,7.0,780.00,13.4
2018-07-05,20:10:00,DRY,4.37,19.97,6.3,780.00,8.4
2018-07-05,20:15:00,DRY,4.10,19.80,6.0,780.00,5.6
2018-07-05,20:20:00,DRY,5.13,19.70,6.3,780.00,4.4
2018-07-05,20:25:00,DRY,4.80,19.60,7.0,780.00,2.4
2018-07-05,20:30:00,DRY,5.30,19.63,7.0,780.00,1.8
2018-07-05,20:35:00,DRY,4.30,19.60,7.0,780.00,1.3
2018-07-05,20:40:00,DRY,4.30,19.57,7.0,780.00,1.3
2018-07-05,20:45:00,DRY,3.50,19.50,7.0,780.00,1.1
2018-07-05,20:50:00,DRY,4.73,19.50,7.0,780.00,0.9
2018-07-05,20:55:00,DRY,4.15,19.45,7.0,780.00,1.4
2018-07-05,21:00:00,DRY,4.30,19.43,7.0,780.33,1.1
2018-07-05,21:05:00,DRY,3.75,19.40,7.0,780.50,0.8
2018-07-05,21:10:00,DRY,4.30,19.37,7.0,781.00,0.9
2018-07-05,21:15:00,DRY,4.00,19.30,7.0,781.00,1.2
2018-07-05,21:20:00,DRY,3.53,19.30,7.0,780.67,1.2
2018-07-05,21:25:00,DRY,4.95,19.25,7.0,781.00,0.9
2018-07-05,21:30:00,DRY,3.90,19.30,7.0,780.67,1.2
2018-07-05,21:35:00,DRY,4.45,19.20,7.0,781.00,1.3
2018-07-05,21:40:00,DRY,4.07,19.17,7.0,780.67,1.2
2018-07-05,21:45:00,DRY,4.60,19.15,7.0,781.00,1.5
2018-07-05,21:50:00,DRY,4.77,19.30,7.0,781.00,1.2
2018-07-05,21:55:00,DRY,4.30,19.15,7.0,781.00,1.4
2018-07-05,22:00:00,DRY,4.67,19.13,7.0,781.00,1.1
2018-07-05,22:05:00,DRY,3.50,19.10,7.0,781.00,0.9
2018-07-05,22:10:00,DRY,3.90,19.00,7.0,781.00,0.8
2018-07-05,22:15:00,DRY,3.40,18.95,7.0,781.00,0.9
2018-07-05,22:20:00,DRY,2.93,19.10,7.0,781.00,1.2
2018-07-05,22:25:00,DRY,4.30,19.10,7.0,781.00,0.9
2018-07-05,22:30:00,DRY,3.23,19.13,7.0,781.00,1.0
2018-07-05,22:35:00,DRY,3.25,19.15,7.0,781.00,1.0
2018-07-05,22:40:00,DRY,3.17,19.23,7.0,781.00,0.9
2018-07-05,22:45:00,DRY,4.25,19.10,7.0,781.00,1.3
2018-07-05,22:50:00,DRY,3.77,19.27,7.0,781.00,1.0
2018-07-05,22:55:00,DRY,5.85,19.45,7.0,781.00,1.1
2018-07-05,23:00:00,DRY,4.90,19.37,7.0,781.00,0.9
2018-07-05,23:05:00,DRY,3.55,19.30,7.0,781.00,1.1
2018-07-05,23:10:00,DRY,3.90,19.13,7.0,781.00,1.0
2018-07-05,23:15:00,DRY,2.70,19.30,7.0,781.00,1.6
2018-07-05,23:20:00,DRY,3.17,19.13,7.0,781.00,0.7
2018-07-05,23:25:00,DRY,3.25,19.25,7.0,781.00,1.8
2018-07-05,23:30:00,DRY,2.00,19.27,7.0,781.00,1.4
2018-07-05,23:35:00,DRY,3.00,19.35,7.0,781.00,1.1
2018-07-05,23:40:00,DRY,1.73,19.23,7.0,781.00,1.7
2018-07-05,23:45:00,DRY,0.95,19.20,7.0,780.50,1.1
2018-07-05,23:50:00,DRY,2.27,19.33,6.3,780.00,1.0
2018-07-05,23:55:00,DRY,2.65,19.40,6.0,780.00,1.4
2018-07-06,00:00:00,DRY,1.07,19.30,6.0,780.00,1.1
2018-07-06,00:05:00,DRY,3.30,19.20,6.0,780.00,0.8
2018-07-06,00:10:00,DRY,2.83,19.17,6.0,780.00,1.2
2018-07-06,00:15:00,DRY,2.80,19.00,6.0,780.00,1.2
2018-07-06,00:20:00,DRY,3.63,18.90,6.0,780.00,1.3
2018-07-06,00:25:00,DRY,3.20,18.90,6.0,780.00,0.7
2018-07-06,00:30:00,DRY,4.20,19.10,6.0,780.00,1.2
2018-07-06,00:35:00,DRY,3.75,19.20,6.0,780.00,1.1
2018-07-06,00:40:00,DRY,4.47,19.23,6.0,780.00,1.3
2018-07-06,00:45:00,DRY,4.50,19.30,6.0,780.00,1.0
2018-07-06,00:50:00,DRY,4.73,19.40,6.0,780.00,1.3
2018-07-06,00:55:00,DRY,4.65,19.45,6.5,780.00,0.9
2018-07-06,01:00:00,DRY,4.93,19.27,7.0,780.00,1.5
2018-07-06,01:05:00,DRY,3.35,19.25,7.0,780.00,1.4
2018-07-06,01:10:00,DRY,5.17,18.80,7.3,780.00,1.1
2018-07-06,01:15:00,DRY,4.20,18.95,8.0,780.00,0.9
2018-07-06,01:20:00,DRY,3.83,18.73,7.7,780.00,0.8
2018-07-06,01:25:00,DRY,5.20,18.80,7.0,780.00,1.2
2018-07-06,01:30:00,DRY,4.80,18.83,7.0,779.33,1.1
2018-07-06,01:35:00,DRY,5.45,18.80,7.0,779.00,0.9
2018-07-06,01:40:00,DRY,5.97,19.00,7.3,779.00,1.9
2018-07-06,01:45:00,DRY,3.95,19.05,8.0,779.00,1.1
2018-07-06,01:50:00,DRY,4.70,18.93,8.0,779.00,0.9
2018-07-06,01:55:00,DRY,3.15,18.95,8.0,779.00,0.6
2018-07-06,02:00:00,DRY,4.87,19.00,8.0,779.00,0.7
2018-07-06,02:05:00,DRY,5.75,19.10,8.0,779.00,2.0
2018-07-06,02:10:00,DRY,4.37,19.07,7.0,779.00,1.0
2018-07-06,02:15:00,DRY,4.30,19.05,7.0,779.00,1.0
2018-07-06,02:20:00,DRY,5.47,19.13,7.0,779.00,1.1
2018-07-06,02:25:00,DRY,5.50,19.10,7.0,779.00,0.6
2018-07-06,02:30:00,DRY,4.90,19.07,7.0,779.00,1.2
2018-07-06,02:35:00,DRY,4.90,18.95,7.0,779.00,1.2
2018-07-06,02:40:00,DRY,4.30,19.03,7.7,779.00,0.7
2018-07-06,02:45:00,DRY,4.00,18.95,8.0,779.00,1.0
2018-07-06,02:50:00,DRY,5.03,18.87,8.0,779.00,1.1
2018-07-06,02:55:00,DRY,4.20,19.00,8.0,779.00,0.9
2018-07-06,03:00:00,DRY,4.67,18.73,8.0,779.00,0.8
2018-07-06,03:05:00,DRY,4.30,18.60,8.0,779.00,2.2
2018-07-06,03:10:00,DRY,4.63,18.50,8.0,779.00,2.0
2018-07-06,03:15:00,DRY,4.85,18.60,8.0,778.50,1.1
2018-07-06,03:20:00,DRY,3.53,18.10,8.3,779.00,1.7
2018-07-06,03:25:00,DRY,2.90,17.55,9.0,779.00,1.0
2018-07-06,03:30:00,DRY,2.13,17.27,9.0,779.00,1.4
2018-07-06,03:35:00,DRY,1.75,17.10,9.0,779.00,1.2
2018-07-06,03:40:00,DRY,2.20,16.87,9.0,779.00,0.7
2018-07-06,03:45:00,DRY,2.35,16.70,9.0,779.00,1.9
2018-07-06,03:50:00,DRY,2.23,16.63,9.0,779.00,0.7
2018-07-06,03:55:00,DRY,2.70,16.65,9.0,779.00,1.8
2018-07-06,04:00:00,DRY,2.27,16.80,9.3,779.00,0.8
2018-07-06,04:05:00,DRY,2.00,16.60,10.0,779.00,0.6
2018-07-06,04:10:00,DRY,1.40,16.40,10.3,779.00,1.4
2018-07-06,04:15:00,DRY,0.65,15.95,11.0,779.00,0.9
2018-07-06,04:20:00,DRY,2.23,16.03,11.0,779.00,0.4
2018-07-06,04:25:00,DRY,2.00,16.55,10.5,779.00,1.2
2018-07-06,04:30:00,DRY,2.23,16.47,11.0,779.00,1.4
2018-07-06,04:35:00,DRY,2.00,16.35,10.5,779.00,0.6
2018-07-06,04:40:00,DRY,2.87,16.90,10.0,779.00,0.7
2018-07-06,04:45:00,DRY,2.00,16.80,10.0,779.00,1.6
2018-07-06,04:50:00,DRY,1.67,16.37,10.3,779.00,1.6
2018-07-06,04:55:00,DRY,2.60,16.65,10.0,779.00,1.2
2018-07-06,05:00:00,DRY,1.53,17.03,10.0,779.00,1.1
2018-07-06,05:05:00,DRY,1.95,16.65,10.0,779.00,2.4
2018-07-06,05:10:00,DRY,1.73,16.97,9.7,779.00,1.3
2018-07-06,05:15:00,DRY,1.05,16.85,10.0,779.00,1.7
2018-07-06,05:20:00,DRY,2.00,16.93,10.0,779.00,0.8
2018-07-06,05:25:00,DRY,2.20,17.00,9.0,779.00,2.2
2018-07-06,05:30:00,DRY,1.70,16.87,9.3,779.00,1.6
2018-07-06,05:35:00,DRY,1.05,16.80,9.0,779.00,1.1
2018-07-06,05:40:00,DRY,2.00,16.83,9.0,778.00,1.0
2018-07-06,05:45:00,DRY,1.55,16.85,9.0,779.00,0.9
2018-07-06,05:50:00,DRY,2.60,16.77,9.0,779.00,1.0
2018-07-06,05:55:00,DRY,2.10,16.75,9.0,779.00,1.1
2018-07-06,06:00:00,DRY,1.70,16.80,9.0,779.00,1.8
2018-07-06,06:05:00,DRY,2.55,16.95,9.0,779.00,1.8
2018-07-06,06:10:00,DRY,3.70,16.93,9.0,779.00,2.7
2018-07-06,06:15:00,DRY,3.45,16.90,9.0,779.00,4.2
2018-07-06,06:20:00,DRY,3.23,16.97,9.0,778.67,7.4
2018-07-06,06:25:00,DRY,3.65,16.95,8.5,779.00,11.8
2018-07-06,06:30:00,DRY,2.57,16.87,9.0,779.00,18.3
2018-07-06,06:35:00,DRY,3.75,16.75,9.0,779.00,23.4
2018-07-06,06:40:00,DRY,3.60,16.87,9.0,779.00,40.4
2018-07-06,06:45:00,DRY,2.15,16.95,9.0,779.00,62.0
2018-07-06,06:50:00,DRY,2.50,17.17,9.0,779.00,83.0
2018-07-06,06:55:00,DRY,2.10,17.20,9.0,779.00,100.2
2018-07-06,07:00:00,DRY,2.77,17.23,9.0,779.00,120.7
2018-07-06,07:05:00,DRY,2.85,17.35,9.0,779.00,141.1
2018-07-06,07:10:00,DRY,1.43,17.47,9.0,779.00,161.1
2018-07-06,07:15:00,DRY,2.70,17.45,9.0,779.00,180.8
2018-07-06,07:20:00,DRY,0.87,17.60,9.0,779.00,200.9
2018-07-06,07:25:00,DRY,1.40,17.70,9.0,779.00,222.8
2018-07-06,07:30:00,DRY,1.23,17.63,9.3,779.00,238.7
2018-07-06,07:35:00,DRY,0.90,17.65,9.0,779.00,259.2
2018-07-06,07:40:00,DRY,1.37,17.83,9.0,779.00,277.9
2018-07-06,07:45:00,DRY,1.80,17.90,9.0,779.00,302.2
2018-07-06,07:50:00,DRY,1.40,17.93,9.0,779.00,320.1
2018-07-06,07:55:00,DRY,0.95,18.00,10.0,779.00,340.0
2018-07-06,08:00:00,DRY,1.97,18.13,9.7,779.00,360.8
2018-07-06,08:05:00,DRY,2.15,18.10,9.5,779.00,383.6
2018-07-06,08:10:00,DRY,1.13,18.20,10.0,779.00,405.5
2018-07-06,08:15:00,DRY,1.35,18.35,11.0,779.00,425.9
2018-07-06,08:20:00,DRY,1.70,18.50,9.7,779.00,446.6
2018-07-06,08:25:00,DRY,1.50,18.55,10.0,779.00,468.6
2018-07-06,08:30:00,DRY,2.30,18.53,10.0,779.00,487.2
2018-07-06,08:35:00,DRY,1.70,18.65,11.0,779.00,508.6
2018-07-06,08:40:00,DRY,1.30,18.90,10.3,779.00,527.0
2018-07-06,08:45:00,DRY,1.80,19.05,10.0,779.00,544.9
2018-07-06,08:50:00,DRY,3.00,19.10,10.7,779.00,565.5
2018-07-06,08:55:00,DRY,2.95,19.10,10.0,779.00,586.3
2018-07-06,09:00:00,DRY,2.20,19.10,9.3,779.00,603.0
2018-07-06,09:05:00,DRY,3.10,19.25,9.0,779.00,621.1
2018-07-06,09:10:00,DRY,2.17,19.47,10.0,779.00,637.7
2018-07-06,09:15:00,DRY,2.15,19.60,8.5,779.00,655.2
2018-07-06,09:20:00,DRY,2.23,19.77,10.0,779.00,674.2
2018-07-06,09:25:00,DRY,1.70,19.85,9.5,779.00,693.1
2018-07-06,09:30:00,DRY,3.10,19.70,9.0,779.00,708.1
2018-07-06,09:35:00,DRY,2.10,19.70,10.5,779.00,726.0
2018-07-06,09:40:00,DRY,2.40,20.03,9.0,779.00,740.8
2018-07-06,09:45:00,DRY,1.50,20.10,12.0,779.00,758.4
2018-07-06,09:50:00,DRY,2.60,20.40,10.3,779.00,775.6
2018-07-06,09:55:00,DRY,1.70,20.45,9.5,779.00,791.2
2018-07-06,10:00:00,DRY,1.77,20.30,10.0,779.00,804.0
2018-07-06,10:05:00,DRY,2.75,20.30,9.0,779.00,817.1
2018-07-06,10:10:00,DRY,2.70,20.30,10.0,779.00,832.4
2018-07-06,10:15:00,DRY,2.15,20.40,10.0,779.00,847.5
2018-07-06,10:20:00,DRY,1.80,20.47,11.0,779.00,861.7
2018-07-06,10:25:00,DRY,2.95,20.70,10.0,779.00,872.8
2018-07-06,10:30:00,DRY,3.33,20.67,9.0,779.00,885.1
2018-07-06,10:35:00,DRY,2.75,20.60,12.5,779.00,899.4
2018-07-06,10:40:00,DRY,2.20,20.87,10.3,779.00,911.2
2018-07-06,10:45:00,DRY,2.00,20.40,11.5,779.00,923.9
2018-07-06,10:50:00,DRY,1.70,20.93,10.3,779.00,937.3
2018-07-06,10:55:00,DRY,2.20,21.00,13.0,779.00,945.9
2018-07-06,11:00:00,DRY,2.47,21.03,13.0,779.00,957.7
2018-07-06,11:05:00,DRY,2.20,21.10,12.5,779.00,966.4
2018-07-06,11:10:00,DRY,1.67,21.07,11.7,779.00,976.9
2018-07-06,11:15:00,DRY,1.45,20.90,14.5,779.00,988.0
2018-07-06,11:20:00,DRY,1.83,20.97,15.3,779.00,998.0
2018-07-06,11:25:00,DRY,2.20,21.25,12.5,779.00,1005.1
2018-07-06,11:30:00,DRY,1.70,21.47,15.0,779.00,1015.2
2018-07-06,11:35:00,DRY,1.10,21.30,15.5,779.00,1020.8
2018-07-06,11:40:00,DRY,1.17,21.27,12.7,779.00,1030.1
2018-07-06,11:45:00,DRY,1.90,21.15,16.5,779.00,1036.2
2018-07-06,11:50:00,DRY,1.80,21.47,14.7,778.67,1043.1
2018-07-06,11:55:00,DRY,2.20,21.65,16.0,779.00,1048.5
2018-07-06,12:00:00,DRY,2.33,21.47,14.3,779.00,1055.9
2018-07-06,12:05:00,DRY,2.60,21.35,15.0,779.00,1062.1
2018-07-06,12:10:00,DRY,2.40,21.43,14.0,779.00,1066.0
2018-07-06,12:15:00,DRY,3.00,21.05,14.5,779.00,1067.5
2018-07-06,12:20:00,DRY,2.43,20.67,14.0,779.00,1074.3
2018-07-06,12:25:00,DRY,1.95,21.00,12.5,779.00,1077.6
2018-07-06,12:30:00,DRY,1.65,21.30,12.5,779.00,1081.7
2018-07-06,12:35:00,DRY,1.85,21.40,13.5,779.00,1084.6
2018-07-06,12:40:00,DRY,2.40,21.00,13.0,779.00,1086.6
2018-07-06,12:45:00,DRY,2.25,21.45,13.5,779.00,1089.8
2018-07-06,12:50:00,DRY,2.00,21.53,13.7,779.00,1089.1
2018-07-06,12:55:00,DRY,2.35,21.70,14.0,779.00,1090.2
2018-07-06,13:00:00,DRY,2.10,21.43,14.0,779.00,1092.5
2018-07-06,13:05:00,DRY,3.35,21.25,12.5,779.00,1093.0
2018-07-06,13:10:00,DRY,2.83,21.07,14.3,778.67,1094.2
2018-07-06,13:15:00,DRY,2.90,21.25,17.0,778.50,1093.8
2018-07-06,13:20:00,DRY,3.30,21.47,15.0,778.67,1096.2
2018-07-06,13:25:00,DRY,2.45,20.90,15.5,778.00,1094.4
2018-07-06,13:30:00,DRY,2.05,21.40,13.5,778.00,1095.2
2018-07-06,13:35:00,DRY,3.30,21.60,17.0,779.00,1094.3
2018-07-06,13:40:00,DRY,1.67,22.00,13.7,778.00,1093.0
2018-07-06,13:45:00,DRY,2.75,22.20,12.0,778.50,1093.7
2018-07-06,13:50:00,DRY,1.70,21.43,13.7,778.00,1091.3
2018-07-06,13:55:00,DRY,2.10,21.25,14.5,778.00,1089.1
2018-07-06,14:00:00,DRY,2.07,21.20,16.3,778.00,1085.3
2018-07-06,14:05:00,DRY,1.50,21.55,16.0,778.00,1079.5
2018-07-06,14:10:00,DRY,2.33,21.23,18.0,778.00,1074.7
2018-07-06,14:15:00,DRY,2.35,21.20,17.5,778.00,1072.2
2018-07-06,14:20:00,DRY,2.57,21.57,18.3,778.00,1068.9
2018-07-06,14:25:00,DRY,1.85,21.85,15.0,778.00,1065.7
2018-07-06,14:30:00,DRY,3.47,21.60,15.7,778.00,1058.2
2018-07-06,14:35:00,DRY,3.25,21.25,14.5,778.00,1052.7
2018-07-06,14:40:00,DRY,2.77,20.63,13.0,778.00,1047.2